EW9034 Weather Reports


time (UTC)temp
F
wind
direction
speed
knots
gust
knots
rain 1hr
in
rain 24hr
in
rain mn
in
humidity
%
barometer
mb
20260504044543 55 11 15.6 26.1 0.00 0.00 0.00 40 1010.3
20260504043048 55 35 19.1 27.8 0.00 0.00 0.00 41 1010.1
20260504041544 57 355 19.1 28.7 0.00 0.00 0.00 38 1009.7
20260504040044 57 50 11.3 16.5 0.00 0.00 0.00 37 1009.0
20260504034547 56 40 9.6 14.8 0.00 0.00 0.00 36 1008.7
20260504033039 57 36 11.3 19.1 0.00 0.00 0.00 36 1008.1
20260504031542 57 34 13.0 21.7 0.00 0.00 0.00 35 1008.0
20260504030038 58 40 14.8 23.5 0.00 0.00 0.00 34 1007.6
20260504024545 58 19 14.8 28.7 0.00 0.00 0.00 34 1007.2
20260504023037 59 38 12.2 26.1 0.00 0.00 0.00 33 1007.0
20260504021539 61 38 16.5 26.1 0.00 0.00 0.00 32 1006.7
20260504020038 63 13 13.9 20.9 0.00 0.00 0.00 32 1006.2
20260504014538 64 23 9.6 13.9 0.00 0.00 0.00 33 1005.9
20260504013047 65 17 11.3 17.4 0.00 0.00 0.00 31 1005.8
20260504011535 66 27 12.2 19.1 0.00 0.00 0.00 30 1005.7
20260504010035 67 11 13.0 19.1 0.00 0.00 0.00 29 1005.6
20260504004533 67 5 15.6 21.7 0.00 0.00 0.00 28 1005.6
20260504003032 67 348 12.2 20.9 0.00 0.00 0.00 28 1005.7
20260504001538 68 355 15.6 26.1 0.00 0.00 0.00 29 1005.7
20260504000030 69 19 19.1 25.2 0.00 0.00 0.00 29 1005.5
20260503234530 70 355 16.5 26.9 0.00 0.00 0.00 28 1005.5
20260503233031 71 360 17.4 24.3 0.00 0.00 0.00 27 1005.4
20260503231531 71 327 18.2 26.1 0.00 0.00 0.00 25 1005.2
20260503230039 72 335 18.2 29.5 0.00 0.00 0.00 25 1005.2
20260503224528 74 339 15.6 22.6 0.00 0.00 0.00 24 1005.0
20260503223028 74 334 10.4 27.8 0.00 0.00 0.00 24 1005.1
20260503221530 74 321 16.5 32.2 0.00 0.00 0.00 22 1005.3
20260503220026 75 319 24.3 30.4 0.00 0.00 0.00 21 1005.2
20260503214536 75 306 19.1 29.5 0.00 0.00 0.00 21 1005.2
20260503213024 75 286 13.0 24.3 0.00 0.00 0.00 24 1005.5
20260503211522 74 291 16.5 28.7 0.00 0.00 0.00 24 1005.6
20260503210020 74 319 15.6 28.7 0.00 0.00 0.00 24 1006.1
20260503204517 74 336 14.8 22.6 0.00 0.00 0.00 25 1006.2
20260503203017 73 331 12.2 24.3 0.00 0.00 0.00 26 1006.5
20260503201515 73 309 7.0 26.1 0.00 0.00 0.00 28 1006.7
20260503200013 73 311 10.4 26.9 0.00 0.00 0.00 27 1007.0
20260503194511 72 265 13.9 20.9 0.00 0.00 0.00 27 1007.1
20260503193016 72 279 15.6 21.7 0.00 0.00 0.00 26 1007.2
20260503191518 72 315 13.0 21.7 0.00 0.00 0.00 28 1007.5
20260503190007 73 324 13.0 23.5 0.00 0.00 0.00 27 1007.8
20260503184503 71 327 9.6 20.0 0.00 0.00 0.00 28 1008.0
20260503183059 72 273 12.2 19.1 0.00 0.00 0.00 28 1008.2
20260503181557 70 304 11.3 20.9 0.00 0.00 0.00 29 1008.2
20260503180100 69 312 9.6 17.4 0.00 0.00 0.00 32 1008.7
20260503174554 67 309 10.4 15.6 0.00 0.00 0.00 33 1009.0
20260503173053 68 305 11.3 17.4 0.00 0.00 0.00 30 1009.0
20260503171550 68 316 7.8 15.6 0.00 0.00 0.00 32 1009.1
20260503081509 40 250 5.2 7.8 0.00 0.00 0.00 83 1011.7
20260503071613 41 251 3.5 7.8 0.00 0.00 0.00 78 1012.1
20260503054558 43 263 3.5 6.1 0.00 0.00 0.00 71 1012.3
20260503053040 43 263 3.5 7.8 0.00 0.00 0.00 71 1012.4